Simultaneous Nadir Overpasses (SNOs) Predictions

Prediction of SNOs between GOES-17 and TERRA Satellite Orbit:

Table of predicted SNOs for the next 14.0 days since TLE Epoch: 6/10/2023
Index Date Time (GOES-17) GOES-17 Lat,Lon TERRA Lat,Lon Distance(km) Time Diff (sec)
1 06/10/2023 16:53:31 -0.01,-104.73 -0.64,-101.68 346.36 80
2 06/11/2023 05:13:52 0.01,-104.69 -0.40,-106.62 219.52 80
3 06/13/2023 04:54:52 0.01,-104.70 0.41,-102.68 229.03 80
4 06/13/2023 17:15:03 -0.01,-104.73 0.61,-107.58 324.48 80
5 06/15/2023 17:01:23 -0.01,-104.74 -0.22,-103.64 124.29 80
6 06/16/2023 05:21:44 0.01,-104.70 -0.81,-108.58 441.02 80
7 06/18/2023 05:02:44 0.02,-104.71 0.05,-104.64 7.90 80
8 06/20/2023 04:46:23 0.01,-104.71 0.86,-100.69 456.43 80
9 06/20/2023 17:06:34 -0.01,-104.74 0.15,-105.60 97.38 80
10 06/22/2023 16:52:53 -0.01,-104.74 -0.68,-101.65 352.12 80
11 06/23/2023 05:13:12 0.01,-104.72 -0.38,-106.59 212.44 80
